Погода в Оме

Россия / Ненецкий автономный округ     66°38′30″N   46°29′32″E
темп.,
°C
ветер,
м/с
пор.,
м/с
влажн.,
%
обл.,
%
осадки,
мм/ч
давл.,
гПа
погр.,
м
7 мая, пт
пт700:00−1в347892 0.0 1010546
03:00−1вюв588887 0.0 1009489
06:000вюв9128264 0.0 1007653
09:00+2вюв10147399 0.0 1006707
12:00+1вюв101697100 1.8 1005608
15:00+2юв8129184 2.8 1006418
18:00+4юв6890100 0.3 1005219
21:00+2вюв61093100 0.6 1006167
8 мая, сб
сб800:00+3юв5895100 0.3 1006118
03:00+3юз3492100 0.3 100647
06:00+4з588558 0.0 1007231
09:00+5зсз696699 0.0 1010581
12:00+7з575767 0.0 10121275
15:00+8ююз4557100 0.0 10141254
18:00+7вюв2363100 0.0 101492
21:00+5юв587799 0.0 1014127
9 мая, вс
вс900:00+6юв81473100 0.0 1012266
03:00+6юв5784100 0.1 101092
06:00+7вюв71278100 0.0 1009235
09:00+10юв101567100 0.0 1006628
12:00+11ююв91264100 0.0 10041001
15:00+8ююв71392100 1.6 1003553
18:00+8ююв4897100 2.7 1001296
21:00+7з5797100 8.1 1001242
10 мая, пн
пн1000:00+3зюз101395100 2.8 1004601
03:00+2зюз111591100 2.9 1008766
06:00+4зюз1014775 0.0 1011727
09:00+7зюз1113605 0.0 10131308
12:00+9з11134287 0.1 10142071
15:00+8з1113402 0.1 10161675
18:00+8з79450 0.0 10171192
21:00+6юз465543 0.0 1017113
11 мая, вт
вт1100:00+4юз45650 0.0 101854
03:00+3ю4564100 0.0 101850
06:00+5ю4778100 0.0 1017199
09:00+9ююз567199 0.0 1016728
12:00+7ююз4487100 0.2 1015269
15:00+7юз2285100 0.3 1016347
18:00+6зсз2395100 1.9 1017128
21:00+6с2395100 2.5 101872